Location: Eurasberg
(48.3353°N, 11.0839°E)
Time: 09:56:26
(UTC+00:00)

Cosmos 468 Rocket - Pass Details

Date: 18 January 2026
Orbit: 740 x 774 km, 74.0° (Epoch: 10 February)

Event Time Altitude Azimuth Distance (km) Brightness Sun altitude
Exits shadow 05:33:19 - 338° (NNW) 2,678 6.5 -14.0°
Reaches altitude 10° 05:34:23 10° 339° (NNW) 2,268 6.1 -13.8°
Maximum altitude 05:39:31 79° 67° (ENE) 768 4.1 -13.0°
Drops below altitude 10° 05:44:40 10° 154° (SSE) 2,270 7.1 -12.2°
Sets 05:47:02 0° 155° (SSE) 3,196 7.9 -11.8°
